{"data":{"norad_id":59032,"intl_designator":"2024-038K","name":"STARLINK-30862","alt_names":[],"object_type":"PAYLOAD","status":"ACTIVE","operator":null,"country":"US","launch_date":"2024-02-25","launch_site_code":"AFETR","launch_vehicle":null,"mission":null,"orbit_class":"UNKNOWN","rcs_meters":null,"size_class":null,"mass_kg":null,"dimensions":null,"purposes":["comms"],"wikipedia_slug":null,"has_3d_model":false,"image_url":null,"decayed_at":null,"tle_current":{"epoch":"2026-09-19T07:06:42.045408Z","epoch_age_seconds":259747,"freshness":"STALE","line1":"1 59032U 24038K   26262.29631997  .00000999  00000+0  45818-4 0  9996","line2":"2 59032  43.0041   2.7910 0001547 272.5384  87.5291 15.27577722144387","mean_motion":15.27577722,"eccentricity":0.0001547,"inclination_deg":43.0041,"raan_deg":2.791,"arg_perigee_deg":272.5384,"mean_anomaly_deg":87.5291,"bstar":4.5818e-5,"rev_number":14438,"period_min":94.266889288924,"perigee_km":481.99449065535,"apogee_km":484.11734374393,"semimajor_km":6861.1929171996,"source":"CELESTRAK","updated_at":"2026-09-21T09:00:34.029723Z"}}}